Location: Rokycany
(49.7330°N, 13.6000°E)
Time: 10:59:34
(UTC+02:00)

ISS - Pass Details

Date: 31 March 2019
Orbit: 408 x 410 km, 51.6° (Epoch: 21 April)

Event Time Altitude Azimuth Distance (km) Brightness Sun altitude
Rises 21:00:05 0° 283° (WNW) 2,338 1.8 -14.0°
Reaches altitude 10° 21:02:11 10° 286° (WNW) 1,475 0.4 -14.3°
Maximum altitude 21:05:29 69° 10° (N) 441 -3.7 -14.8°
Enters shadow 21:06:55 31° 87° (E) 751 -3.0 -15.0°
